| time (UTC) | temp F | wind direction | speed MPH | gust MPH | rain 1hr in | rain 24hr in | rain mn in | humidity % | barometer mb |
| 20260903102810 | 78 | 227 | 1.0 | 2.0 | 0.00 | 0.00 | 0.00 | 91 | 1013.6 |
| 20260903102306 | 78 | 234 | 0.0 | 1.0 | 0.00 | 0.00 | 0.00 | 90 | 1013.4 |
| 20260903101803 | 78 | 224 | 1.0 | 1.0 | 0.00 | 0.00 | 0.00 | 90 | 1013.5 |
| 20260903101259 | 78 | 213 | 0.0 | 0.0 | 0.00 | 0.00 | 0.00 | 90 | 1013.2 |
| 20260903100754 | 78 | 192 | 2.0 | 2.0 | 0.00 | 0.00 | 0.00 | 90 | 1013.5 |
| 20260903100248 | 79 | 206 | 1.0 | 2.0 | 0.00 | 0.00 | 0.00 | 89 | 1013.5 |
| 20260903095745 | 79 | 212 | 1.0 | 1.0 | 0.00 | 0.00 | 0.00 | 89 | 1013.5 |
| 20260903095240 | 79 | 201 | 0.0 | 1.0 | 0.00 | 0.00 | 0.00 | 88 | 1013.5 |
| 20260903094735 | 80 | 202 | 0.0 | 0.0 | 0.00 | 0.00 | 0.00 | 85 | 1013.4 |
| 20260903094230 | 80 | 200 | 0.0 | 1.0 | 0.00 | 0.00 | 0.00 | 85 | 1013.6 |
| 20260903093725 | 80 | 205 | 1.0 | 1.0 | 0.00 | 0.00 | 0.00 | 85 | 1013.5 |
| 20260903093221 | 80 | 201 | 0.0 | 1.0 | 0.00 | 0.00 | 0.00 | 85 | 1013.5 |
| 20260903092720 | 80 | 205 | 0.0 | 0.0 | 0.00 | 0.00 | 0.00 | 85 | 1013.5 |
| 20260903092215 | 80 | 203 | 0.0 | 0.0 | 0.00 | 0.00 | 0.00 | 85 | 1013.5 |
| 20260903091714 | 79 | 208 | 0.0 | 1.0 | 0.00 | 0.00 | 0.00 | 87 | 1013.6 |
| 20260903091209 | 78 | 220 | 1.0 | 1.0 | 0.00 | 0.00 | 0.00 | 89 | 1014.1 |
| 20260903090704 | 78 | 220 | 0.0 | 0.0 | 0.00 | 0.00 | 0.00 | 89 | 1013.7 |
| 20260903090203 | 78 | 220 | 0.0 | 0.0 | 0.00 | 0.00 | 0.00 | 89 | 1013.7 |
| 20260903085701 | 78 | 220 | 0.0 | 0.0 | 0.00 | 0.00 | 0.00 | 89 | 1013.8 |
| 20260903085157 | 78 | 220 | 0.0 | 0.0 | 0.00 | 0.00 | 0.00 | 89 | 1013.7 |
| 20260903084655 | 78 | 219 | 0.0 | 0.0 | 0.00 | 0.00 | 0.00 | 88 | 1013.6 |
| 20260903084149 | 78 | 219 | 0.0 | 0.0 | 0.00 | 0.00 | 0.00 | 88 | 1013.7 |
| 20260903083646 | 78 | 220 | 0.0 | 1.0 | 0.00 | 0.00 | 0.00 | 88 | 1013.8 |
| 20260903083145 | 78 | 219 | 0.0 | 0.0 | 0.00 | 0.00 | 0.00 | 87 | 1013.7 |
| 20260903082639 | 78 | 219 | 0.0 | 0.0 | 0.00 | 0.00 | 0.00 | 87 | 1013.6 |
| 20260903082136 | 78 | 221 | 0.0 | 0.0 | 0.00 | 0.00 | 0.00 | 86 | 1013.7 |
| 20260903081630 | 79 | 220 | 0.0 | 0.0 | 0.00 | 0.00 | 0.00 | 85 | 1013.7 |
| 20260903081126 | 80 | 220 | 0.0 | 0.0 | 0.00 | 0.00 | 0.00 | 84 | 1013.6 |
| 20260903080622 | 80 | 211 | 0.0 | 0.0 | 0.00 | 0.00 | 0.00 | 82 | 1013.6 |
| 20260903080120 | 81 | 209 | 0.0 | 1.0 | 0.00 | 0.00 | 0.00 | 82 | 1013.6 |
| 20260903075613 | 81 | 209 | 0.0 | 0.0 | 0.00 | 0.00 | 0.00 | 82 | 1013.7 |
| 20260903075109 | 81 | 207 | 0.0 | 1.0 | 0.00 | 0.00 | 0.00 | 81 | 1013.8 |
| 20260903074607 | 81 | 215 | 0.0 | 1.0 | 0.00 | 0.00 | 0.00 | 81 | 1014.0 |
| 20260903074102 | 80 | 215 | 0.0 | 1.0 | 0.00 | 0.00 | 0.00 | 82 | 1013.7 |
| 20260903073557 | 79 | 212 | 0.0 | 0.0 | 0.00 | 0.00 | 0.00 | 85 | 1013.6 |
| 20260903073053 | 79 | 218 | 0.0 | 0.0 | 0.00 | 0.00 | 0.00 | 84 | 1013.5 |
| 20260903072549 | 79 | 223 | 0.0 | 0.0 | 0.00 | 0.00 | 0.00 | 84 | 1013.8 |
| 20260903072045 | 79 | 272 | 1.0 | 2.0 | 0.00 | 0.00 | 0.00 | 84 | 1013.6 |
| 20260903071541 | 79 | 222 | 0.0 | 1.0 | 0.00 | 0.00 | 0.00 | 84 | 1013.7 |
| 20260903071036 | 79 | 216 | 0.0 | 1.0 | 0.00 | 0.00 | 0.00 | 84 | 1013.8 |
| 20260903070536 | 80 | 216 | 0.0 | 0.0 | 0.00 | 0.00 | 0.00 | 84 | 1014.2 |
| 20260903070032 | 80 | 223 | 1.0 | 1.0 | 0.00 | 0.00 | 0.00 | 83 | 1013.8 |
| 20260903065526 | 80 | 227 | 0.0 | 1.0 | 0.00 | 0.00 | 0.00 | 82 | 1013.8 |
| 20260903065025 | 81 | 213 | 1.0 | 1.0 | 0.00 | 0.00 | 0.00 | 81 | 1014.2 |
| 20260903064525 | 82 | 243 | 0.0 | 1.0 | 0.00 | 0.00 | 0.00 | 79 | 1013.8 |
| 20260903064021 | 82 | 214 | 0.0 | 1.0 | 0.00 | 0.00 | 0.00 | 78 | 1014.1 |
| 20260903063516 | 83 | 213 | 0.0 | 1.0 | 0.00 | 0.00 | 0.00 | 77 | 1014.0 |
| 20260903063011 | 83 | 210 | 0.0 | 1.0 | 0.00 | 0.00 | 0.00 | 77 | 1013.8 |
| 20260903062506 | 82 | 206 | 1.0 | 1.0 | 0.00 | 0.00 | 0.00 | 78 | 1014.1 |
| 20260903062002 | 81 | 219 | 0.0 | 1.0 | 0.00 | 0.00 | 0.00 | 79 | 1014.0 |
| 20260903061456 | 81 | 224 | 0.0 | 1.0 | 0.00 | 0.00 | 0.00 | 80 | 1014.1 |
| 20260903060951 | 81 | 222 | 0.0 | 0.0 | 0.00 | 0.00 | 0.00 | 79 | 1014.2 |
| 20260903060446 | 81 | 224 | 0.0 | 0.0 | 0.00 | 0.00 | 0.00 | 78 | 1014.1 |
| 20260903055945 | 82 | 231 | 1.0 | 1.0 | 0.00 | 0.00 | 0.00 | 78 | 1014.3 |
| 20260903055443 | 82 | 218 | 1.0 | 1.0 | 0.00 | 0.00 | 0.00 | 77 | 1014.3 |
| 20260903054943 | 82 | 228 | 1.0 | 1.0 | 0.00 | 0.00 | 0.00 | 77 | 1014.0 |
| 20260903054437 | 82 | 220 | 0.0 | 1.0 | 0.00 | 0.00 | 0.00 | 76 | 1014.2 |
| 20260903053933 | 82 | 225 | 1.0 | 1.0 | 0.00 | 0.00 | 0.00 | 75 | 1014.2 |
| 20260903053433 | 83 | 207 | 0.0 | 1.0 | 0.00 | 0.00 | 0.00 | 74 | 1014.1 |
| 20260903052930 | 84 | 232 | 2.0 | 2.0 | 0.00 | 0.00 | 0.00 | 72 | 1014.0 |
| 20260903052425 | 85 | 208 | 0.0 | 1.0 | 0.00 | 0.00 | 0.00 | 70 | 1014.1 |
| 20260903051921 | 85 | 202 | 1.0 | 3.0 | 0.00 | 0.00 | 0.00 | 69 | 1014.3 |
| 20260903051416 | 85 | 223 | 0.0 | 1.0 | 0.00 | 0.00 | 0.00 | 68 | 1014.0 |
| 20260903050912 | 85 | 267 | 2.0 | 3.0 | 0.00 | 0.00 | 0.00 | 68 | 1013.8 |
| 20260903050410 | 85 | 200 | 1.0 | 2.0 | 0.00 | 0.00 | 0.00 | 69 | 1013.8 |
| 20260903045905 | 84 | 222 | 1.0 | 1.0 | 0.00 | 0.00 | 0.00 | 71 | 1013.3 |
| 20260903045401 | 84 | 225 | 3.0 | 3.0 | 0.00 | 0.00 | 0.00 | 70 | 1013.4 |
| 20260903044858 | 84 | 226 | 0.0 | 1.0 | 0.00 | 0.00 | 0.00 | 70 | 1013.5 |
| 20260903044357 | 84 | 249 | 0.0 | 1.0 | 0.00 | 0.00 | 0.00 | 69 | 1013.6 |
| 20260903043854 | 84 | 228 | 1.0 | 3.0 | 0.00 | 0.00 | 0.00 | 69 | 1013.2 |
| 20260903043349 | 85 | 202 | 0.0 | 1.0 | 0.00 | 0.00 | 0.00 | 69 | 1013.4 |
| 20260903042848 | 85 | 251 | 1.0 | 1.0 | 0.00 | 0.00 | 0.00 | 69 | 1013.5 |
| 20260903042343 | 86 | 219 | 0.0 | 0.0 | 0.00 | 0.00 | 0.00 | 68 | 1013.4 |
| 20260903041839 | 87 | 231 | 1.0 | 1.0 | 0.00 | 0.00 | 0.00 | 67 | 1013.3 |
| 20260903041335 | 87 | 231 | 1.0 | 1.0 | 0.00 | 0.00 | 0.00 | 65 | 1013.2 |
| 20260903040831 | 87 | 170 | 2.0 | 2.0 | 0.00 | 0.00 | 0.00 | 65 | 1013.2 |
| 20260903040329 | 86 | 208 | 0.0 | 1.0 | 0.00 | 0.00 | 0.00 | 64 | 1013.3 |
| 20260903035826 | 85 | 214 | 0.0 | 1.0 | 0.00 | 0.00 | 0.00 | 64 | 1013.0 |
| 20260903035321 | 84 | 212 | 0.0 | 1.0 | 0.00 | 0.00 | 0.00 | 64 | 1013.3 |
| 20260903034816 | 83 | 230 | 0.0 | 1.0 | 0.00 | 0.00 | 0.00 | 66 | 1013.3 |
| 20260903034311 | 80 | 326 | 2.0 | 2.0 | 0.00 | 0.00 | 0.00 | 68 | 1012.9 |
| 20260903033806 | 81 | 201 | 0.0 | 0.0 | 0.00 | 0.00 | 0.00 | 69 | 1013.2 |
| 20260903033301 | 81 | 201 | 0.0 | 0.0 | 0.00 | 0.00 | 0.00 | 67 | 1013.0 |
| 20260903032755 | 81 | 201 | 0.0 | 0.0 | 0.00 | 0.00 | 0.00 | 66 | 1013.0 |
| 20260903032252 | 81 | 201 | 0.0 | 0.0 | 0.00 | 0.00 | 0.00 | 65 | 1012.6 |
| 20260903031747 | 81 | 201 | 0.0 | 0.0 | 0.00 | 0.00 | 0.00 | 65 | 1012.5 |
| 20260903031241 | 82 | 201 | 0.0 | 0.0 | 0.00 | 0.00 | 0.00 | 65 | 1012.6 |
| 20260903030737 | 83 | 201 | 0.0 | 0.0 | 0.00 | 0.00 | 0.00 | 63 | 1012.6 |
| 20260903030233 | 83 | 202 | 1.0 | 1.0 | 0.00 | 0.00 | 0.00 | 62 | 1012.4 |
| 20260903025728 | 83 | 206 | 0.0 | 1.0 | 0.00 | 0.00 | 0.00 | 63 | 1012.4 |
| 20260903025224 | 84 | 200 | 0.0 | 1.0 | 0.00 | 0.00 | 0.00 | 62 | 1012.3 |
| 20260903024723 | 84 | 200 | 0.0 | 1.0 | 0.00 | 0.00 | 0.00 | 62 | 1012.2 |
| 20260903024222 | 84 | 200 | 0.0 | 1.0 | 0.00 | 0.00 | 0.00 | 61 | 1012.2 |
| 20260903023719 | 84 | 194 | 0.0 | 1.0 | 0.00 | 0.00 | 0.00 | 61 | 1012.1 |
| 20260903023214 | 84 | 200 | 0.0 | 1.0 | 0.00 | 0.00 | 0.00 | 61 | 1012.1 |
| 20260903022714 | 83 | 201 | 0.0 | 1.0 | 0.00 | 0.00 | 0.00 | 62 | 1012.0 |
| 20260903022212 | 83 | 200 | 0.0 | 0.0 | 0.00 | 0.00 | 0.00 | 63 | 1011.9 |
| 20260903021707 | 84 | 200 | 0.0 | 0.0 | 0.00 | 0.00 | 0.00 | 61 | 1011.8 |
| 20260903021202 | 84 | 200 | 0.0 | 0.0 | 0.00 | 0.00 | 0.00 | 60 | 1011.8 |
| 20260903020657 | 84 | 198 | 0.0 | 0.0 | 0.00 | 0.00 | 0.00 | 59 | 1011.6 |
| 20260903020157 | 85 | 198 | 0.0 | 0.0 | 0.00 | 0.00 | 0.00 | 59 | 1011.5 |
| 20260903015652 | 86 | 198 | 0.0 | 0.0 | 0.00 | 0.00 | 0.00 | 58 | 1011.4 |
| 20260903015148 | 87 | 194 | 0.0 | 0.0 | 0.00 | 0.00 | 0.00 | 57 | 1011.4 |
| 20260903014642 | 87 | 194 | 1.0 | 1.0 | 0.00 | 0.00 | 0.00 | 55 | 1011.4 |
| 20260903014142 | 88 | 202 | 1.0 | 1.0 | 0.00 | 0.00 | 0.00 | 55 | 1011.4 |
| 20260903013636 | 89 | 201 | 0.0 | 1.0 | 0.00 | 0.00 | 0.00 | 53 | 1011.3 |
| 20260903013131 | 89 | 202 | 1.0 | 1.0 | 0.00 | 0.00 | 0.00 | 53 | 1011.5 |
| 20260903012630 | 90 | 202 | 0.0 | 1.0 | 0.00 | 0.00 | 0.00 | 51 | 1011.5 |
| 20260903012129 | 90 | 201 | 1.0 | 1.0 | 0.00 | 0.00 | 0.00 | 50 | 1011.5 |
| 20260903011629 | 90 | 202 | 1.0 | 1.0 | 0.00 | 0.00 | 0.00 | 50 | 1011.6 |
| 20260903011123 | 91 | 203 | 0.0 | 1.0 | 0.00 | 0.00 | 0.00 | 49 | 1011.3 |
| 20260903010619 | 92 | 205 | 0.0 | 1.0 | 0.00 | 0.00 | 0.00 | 47 | 1011.4 |
| 20260903010117 | 93 | 209 | 0.0 | 1.0 | 0.00 | 0.00 | 0.00 | 46 | 1011.3 |
| 20260903005612 | 94 | 206 | 0.0 | 1.0 | 0.00 | 0.00 | 0.00 | 46 | 1011.5 |
| 20260903005108 | 94 | 210 | 0.0 | 0.0 | 0.00 | 0.00 | 0.00 | 45 | 1011.3 |
| 20260903004608 | 92 | 227 | 0.0 | 0.0 | 0.00 | 0.00 | 0.00 | 47 | 1011.3 |
| 20260903004103 | 92 | 227 | 0.0 | 0.0 | 0.00 | 0.00 | 0.00 | 47 | 1011.4 |
| 20260903003558 | 93 | 227 | 0.0 | 0.0 | 0.00 | 0.00 | 0.00 | 46 | 1011.3 |
| 20260903003054 | 93 | 220 | 0.0 | 0.0 | 0.00 | 0.00 | 0.00 | 45 | 1011.3 |
| 20260903002548 | 94 | 216 | 0.0 | 0.0 | 0.00 | 0.00 | 0.00 | 44 | 1011.1 |
| 20260903002042 | 95 | 215 | 1.0 | 1.0 | 0.00 | 0.00 | 0.00 | 43 | 1011.3 |
| 20260903001538 | 96 | 238 | 1.0 | 1.0 | 0.00 | 0.00 | 0.00 | 42 | 1011.3 |
| 20260903001037 | 97 | 223 | 1.0 | 1.0 | 0.00 | 0.00 | 0.00 | 41 | 1011.3 |
| 20260903000532 | 97 | 236 | 1.0 | 2.0 | 0.00 | 0.00 | 0.00 | 40 | 1011.5 |
| 20260903000026 | 97 | 215 | 0.0 | 1.0 | 0.00 | 0.00 | 0.00 | 40 | 1011.1 |
| 20260902235526 | 97 | 256 | 1.0 | 1.0 | 0.00 | 0.00 | 0.00 | 40 | 1011.3 |
| 20260902235021 | 97 | 220 | 1.0 | 1.0 | 0.00 | 0.00 | 0.00 | 40 | 1011.3 |
| 20260902234521 | 97 | 210 | 1.0 | 1.0 | 0.00 | 0.00 | 0.00 | 41 | 1011.4 |
| 20260902234019 | 98 | 237 | 1.0 | 1.0 | 0.00 | 0.00 | 0.00 | 40 | 1011.4 |
| 20260902233514 | 98 | 212 | 1.0 | 1.0 | 0.00 | 0.00 | 0.00 | 39 | 1011.4 |
| 20260902233009 | 98 | 204 | 1.0 | 1.0 | 0.00 | 0.00 | 0.00 | 39 | 1011.7 |
| 20260902232508 | 99 | 209 | 0.0 | 0.0 | 0.00 | 0.00 | 0.00 | 38 | 1011.4 |
| 20260902232003 | 99 | 198 | 2.0 | 2.0 | 0.00 | 0.00 | 0.00 | 38 | 1011.5 |
| 20260902231457 | 98 | 205 | 0.0 | 0.0 | 0.00 | 0.00 | 0.00 | 39 | 1011.6 |
| 20260902230952 | 98 | 207 | 0.0 | 1.0 | 0.00 | 0.00 | 0.00 | 40 | 1011.3 |
| 20260902230446 | 98 | 204 | 1.0 | 1.0 | 0.00 | 0.00 | 0.00 | 41 | 1011.2 |
| 20260902225945 | 98 | 205 | 0.0 | 0.0 | 0.00 | 0.00 | 0.00 | 40 | 1011.3 |
| 20260902225435 | 98 | 205 | 0.0 | 1.0 | 0.00 | 0.00 | 0.00 | 40 | 1011.1 |
| 20260902224934 | 98 | 205 | 1.0 | 1.0 | 0.00 | 0.00 | 0.00 | 39 | 1011.3 |
| 20260902224433 | 99 | 204 | 1.0 | 1.0 | 0.00 | 0.00 | 0.00 | 39 | 1011.2 |
| 20260902223930 | 98 | 205 | 0.0 | 0.0 | 0.00 | 0.00 | 0.00 | 39 | 1011.4 |
| 20260902223425 | 99 | 207 | 0.0 | 1.0 | 0.00 | 0.00 | 0.00 | 39 | 1011.3 |
| 20260902222924 | 99 | 184 | 1.0 | 2.0 | 0.00 | 0.00 | 0.00 | 38 | 1011.3 |
| 20260902222422 | 99 | 204 | 1.0 | 1.0 | 0.00 | 0.00 | 0.00 | 38 | 1011.3 |
| 20260902221917 | 99 | 215 | 0.0 | 1.0 | 0.00 | 0.00 | 0.00 | 36 | 1011.3 |
| 20260902221416 | 100 | 228 | 2.0 | 2.0 | 0.00 | 0.00 | 0.00 | 37 | 1011.5 |
| 20260902220912 | 101 | 206 | 0.0 | 1.0 | 0.00 | 0.00 | 0.00 | 37 | 1011.4 |
| 20260902220412 | 100 | 185 | 2.0 | 2.0 | 0.00 | 0.00 | 0.00 | 37 | 1011.5 |
| 20260902215907 | 101 | 200 | 1.0 | 2.0 | 0.00 | 0.00 | 0.00 | 37 | 1011.5 |
| 20260902215402 | 101 | 207 | 1.0 | 2.0 | 0.00 | 0.00 | 0.00 | 38 | 1011.7 |
| 20260902214858 | 101 | 202 | 0.0 | 0.0 | 0.00 | 0.00 | 0.00 | 37 | 1011.5 |
| 20260902214357 | 101 | 188 | 1.0 | 2.0 | 0.00 | 0.00 | 0.00 | 37 | 1011.6 |
| 20260902213852 | 101 | 120 | 2.0 | 2.0 | 0.00 | 0.00 | 0.00 | 37 | 1011.8 |
| 20260902213348 | 100 | 191 | 1.0 | 1.0 | 0.00 | 0.00 | 0.00 | 37 | 1011.6 |
| 20260902212846 | 100 | 209 | 4.0 | 5.0 | 0.00 | 0.00 | 0.00 | 39 | 1011.7 |
| 20260902212343 | 102 | 216 | 3.0 | 3.0 | 0.00 | 0.00 | 0.00 | 37 | 1011.6 |
| 20260902211839 | 101 | 208 | 2.0 | 3.0 | 0.00 | 0.00 | 0.00 | 38 | 1012.0 |
| 20260902211335 | 101 | 192 | 1.0 | 3.0 | 0.00 | 0.00 | 0.00 | 38 | 1011.8 |
| 20260902210830 | 100 | 219 | 0.0 | 1.0 | 0.00 | 0.00 | 0.00 | 38 | 1011.8 |
| 20260902210329 | 101 | 207 | 0.0 | 0.0 | 0.00 | 0.00 | 0.00 | 38 | 1012.0 |
| 20260902205827 | 99 | 193 | 1.0 | 2.0 | 0.00 | 0.00 | 0.00 | 40 | 1012.2 |
| 20260902205322 | 101 | 201 | 2.0 | 2.0 | 0.00 | 0.00 | 0.00 | 39 | 1012.2 |
| 20260902204818 | 102 | 221 | 1.0 | 1.0 | 0.00 | 0.00 | 0.00 | 37 | 1012.4 |
| 20260902204312 | 102 | 188 | 2.0 | 2.0 | 0.00 | 0.00 | 0.00 | 37 | 1012.2 |
| 20260902203808 | 102 | 159 | 3.0 | 3.0 | 0.00 | 0.00 | 0.00 | 36 | 1012.5 |
| 20260902203303 | 102 | 193 | 0.0 | 1.0 | 0.00 | 0.00 | 0.00 | 37 | 1012.6 |
| 20260902202757 | 102 | 174 | 2.0 | 2.0 | 0.00 | 0.00 | 0.00 | 36 | 1012.5 |
| 20260902202254 | 101 | 190 | 0.0 | 1.0 | 0.00 | 0.00 | 0.00 | 36 | 1012.7 |
| 20260902201750 | 101 | 195 | 1.0 | 1.0 | 0.00 | 0.00 | 0.00 | 37 | 1012.5 |
| 20260902201249 | 102 | 195 | 1.0 | 1.0 | 0.00 | 0.00 | 0.00 | 38 | 1012.7 |
| 20260902200745 | 102 | 202 | 2.0 | 2.0 | 0.00 | 0.00 | 0.00 | 38 | 1012.9 |
| 20260902200240 | 102 | 261 | 2.0 | 2.0 | 0.00 | 0.00 | 0.00 | 38 | 1012.9 |
| 20260902195735 | 101 | 171 | 2.0 | 2.0 | 0.00 | 0.00 | 0.00 | 38 | 1013.0 |
| 20260902195235 | 101 | 96 | 3.0 | 3.0 | 0.00 | 0.00 | 0.00 | 39 | 1012.9 |
| 20260902194734 | 100 | 156 | 3.0 | 3.0 | 0.00 | 0.00 | 0.00 | 41 | 1013.2 |
| 20260902194230 | 101 | 203 | 3.0 | 5.0 | 0.00 | 0.00 | 0.00 | 39 | 1013.2 |
| 20260902193725 | 102 | 164 | 2.0 | 3.0 | 0.00 | 0.00 | 0.00 | 38 | 1013.3 |
| 20260902193220 | 101 | 187 | 1.0 | 1.0 | 0.00 | 0.00 | 0.00 | 39 | 1013.3 |
| 20260902192719 | 102 | 181 | 1.0 | 1.0 | 0.00 | 0.00 | 0.00 | 38 | 1013.5 |
| 20260902192213 | 101 | 159 | 2.0 | 2.0 | 0.00 | 0.00 | 0.00 | 40 | 1013.5 |
| 20260902191712 | 102 | 249 | 2.0 | 2.0 | 0.00 | 0.00 | 0.00 | 39 | 1013.8 |
| 20260902191207 | 101 | 190 | 0.0 | 1.0 | 0.00 | 0.00 | 0.00 | 40 | 1013.8 |
| 20260902190703 | 101 | 164 | 2.0 | 2.0 | 0.00 | 0.00 | 0.00 | 40 | 1014.0 |
| 20260902190157 | 102 | 172 | 2.0 | 3.0 | 0.00 | 0.00 | 0.00 | 40 | 1014.2 |
| 20260902185653 | 101 | 190 | 1.0 | 2.0 | 0.00 | 0.00 | 0.00 | 40 | 1014.1 |
| 20260902185149 | 100 | 148 | 2.0 | 2.0 | 0.00 | 0.00 | 0.00 | 42 | 1014.1 |
| 20260902184649 | 99 | 183 | 1.0 | 1.0 | 0.00 | 0.00 | 0.00 | 42 | 1014.1 |
| 20260902184145 | 100 | 225 | 2.0 | 2.0 | 0.00 | 0.00 | 0.00 | 41 | 1014.3 |
| 20260902183641 | 100 | 192 | 1.0 | 1.0 | 0.00 | 0.00 | 0.00 | 42 | 1014.3 |
| 20260902183137 | 100 | 191 | 1.0 | 1.0 | 0.00 | 0.00 | 0.00 | 41 | 1014.5 |
| 20260902182633 | 99 | 196 | 1.0 | 1.0 | 0.00 | 0.00 | 0.00 | 42 | 1014.6 |
| 20260902182129 | 99 | 179 | 1.0 | 1.0 | 0.00 | 0.00 | 0.00 | 43 | 1014.7 |
| 20260902181625 | 98 | 180 | 1.0 | 1.0 | 0.00 | 0.00 | 0.00 | 43 | 1014.6 |
| 20260902181124 | 98 | 159 | 2.0 | 2.0 | 0.00 | 0.00 | 0.00 | 44 | 1015.0 |
| 20260902180619 | 98 | 177 | 1.0 | 2.0 | 0.00 | 0.00 | 0.00 | 43 | 1014.9 |
| 20260902180116 | 99 | 193 | 1.0 | 2.0 | 0.00 | 0.00 | 0.00 | 44 | 1015.1 |
| 20260902175614 | 99 | 190 | 1.0 | 1.0 | 0.00 | 0.00 | 0.00 | 42 | 1015.1 |
| 20260902175110 | 97 | 195 | 2.0 | 2.0 | 0.00 | 0.00 | 0.00 | 44 | 1015.2 |
| 20260902174607 | 99 | 150 | 1.0 | 2.0 | 0.00 | 0.00 | 0.00 | 43 | 1015.3 |
| 20260902174102 | 99 | 149 | 2.0 | 2.0 | 0.00 | 0.00 | 0.00 | 42 | 1015.4 |
| 20260902173601 | 98 | 193 | 1.0 | 2.0 | 0.00 | 0.00 | 0.00 | 43 | 1015.3 |
| 20260902173057 | 98 | 159 | 2.0 | 2.0 | 0.00 | 0.00 | 0.00 | 44 | 1015.6 |
| 20260902172550 | 97 | 106 | 3.0 | 3.0 | 0.00 | 0.00 | 0.00 | 46 | 1015.7 |
| 20260902172045 | 96 | 216 | 0.0 | 1.0 | 0.00 | 0.00 | 0.00 | 47 | 1015.6 |
| 20260902171541 | 97 | 264 | 1.0 | 2.0 | 0.00 | 0.00 | 0.00 | 48 | 1015.7 |
| 20260902171037 | 98 | 218 | 2.0 | 2.0 | 0.00 | 0.00 | 0.00 | 48 | 1015.7 |
| 20260902170531 | 97 | 198 | 1.0 | 1.0 | 0.00 | 0.00 | 0.00 | 47 | 1015.7 |
| 20260902170028 | 97 | 198 | 2.0 | 2.0 | 0.00 | 0.00 | 0.00 | 47 | 1016.0 |
| 20260902165522 | 98 | 202 | 0.0 | 1.0 | 0.00 | 0.00 | 0.00 | 46 | 1015.8 |
| 20260902165022 | 95 | 91 | 2.0 | 2.0 | 0.00 | 0.00 | 0.00 | 49 | 1015.9 |
| 20260902164517 | 95 | 200 | 3.0 | 3.0 | 0.00 | 0.00 | 0.00 | 51 | 1016.0 |
| 20260902164015 | 94 | 208 | 1.0 | 2.0 | 0.00 | 0.00 | 0.00 | 52 | 1016.0 |
| 20260902163512 | 93 | 209 | 0.0 | 1.0 | 0.00 | 0.00 | 0.00 | 53 | 1016.0 |
| 20260902163009 | 93 | 197 | 1.0 | 1.0 | 0.00 | 0.00 | 0.00 | 53 | 1016.2 |
| 20260902162504 | 93 | 208 | 1.0 | 2.0 | 0.00 | 0.00 | 0.00 | 53 | 1016.2 |
| 20260902161959 | 92 | 219 | 2.0 | 2.0 | 0.00 | 0.00 | 0.00 | 54 | 1016.0 |
| 20260902161454 | 93 | 198 | 1.0 | 2.0 | 0.00 | 0.00 | 0.00 | 54 | 1016.4 |
| 20260902160949 | 92 | 207 | 1.0 | 2.0 | 0.00 | 0.00 | 0.00 | 56 | 1016.0 |
| 20260902160445 | 92 | 190 | 1.0 | 2.0 | 0.00 | 0.00 | 0.00 | 57 | 1016.3 |
| 20260902155943 | 93 | 205 | 1.0 | 2.0 | 0.00 | 0.00 | 0.00 | 57 | 1016.1 |
| 20260902155439 | 92 | 203 | 1.0 | 1.0 | 0.00 | 0.00 | 0.00 | 57 | 1016.2 |
| 20260902154932 | 92 | 198 | 2.0 | 3.0 | 0.00 | 0.00 | 0.00 | 58 | 1016.0 |
| 20260902154428 | 91 | 170 | 1.0 | 2.0 | 0.00 | 0.00 | 0.00 | 58 | 1016.1 |
| 20260902153927 | 91 | 202 | 1.0 | 2.0 | 0.00 | 0.00 | 0.00 | 59 | 1016.1 |
| 20260902153426 | 89 | 180 | 2.0 | 2.0 | 0.00 | 0.00 | 0.00 | 61 | 1016.0 |
| 20260902152922 | 88 | 205 | 2.0 | 3.0 | 0.00 | 0.00 | 0.00 | 63 | 1016.1 |
| 20260902152418 | 87 | 202 | 1.0 | 1.0 | 0.00 | 0.00 | 0.00 | 65 | 1016.2 |
| 20260902151913 | 87 | 185 | 1.0 | 2.0 | 0.00 | 0.00 | 0.00 | 67 | 1016.1 |
| 20260902151409 | 87 | 221 | 1.0 | 2.0 | 0.00 | 0.00 | 0.00 | 68 | 1016.1 |
| 20260902150903 | 86 | 213 | 2.0 | 2.0 | 0.00 | 0.00 | 0.00 | 69 | 1016.2 |
| 20260902150359 | 86 | 216 | 2.0 | 2.0 | 0.00 | 0.00 | 0.00 | 70 | 1016.1 |
| 20260902145858 | 85 | 198 | 1.0 | 1.0 | 0.00 | 0.00 | 0.00 | 72 | 1016.2 |
| 20260902145354 | 85 | 201 | 1.0 | 1.0 | 0.00 | 0.00 | 0.00 | 72 | 1016.2 |
| 20260902144849 | 86 | 205 | 1.0 | 1.0 | 0.00 | 0.00 | 0.00 | 72 | 1016.2 |
| 20260902144345 | 86 | 196 | 1.0 | 1.0 | 0.00 | 0.00 | 0.00 | 72 | 1016.3 |
| 20260902143845 | 86 | 209 | 1.0 | 1.0 | 0.00 | 0.00 | 0.00 | 74 | 1016.2 |
| 20260902143340 | 85 | 208 | 2.0 | 2.0 | 0.00 | 0.00 | 0.00 | 75 | 1016.2 |
| 20260902142836 | 84 | 207 | 1.0 | 1.0 | 0.00 | 0.00 | 0.00 | 77 | 1016.2 |
| 20260902142332 | 82 | 207 | 1.0 | 1.0 | 0.00 | 0.00 | 0.00 | 79 | 1016.5 |
| 20260902141826 | 82 | 204 | 1.0 | 1.0 | 0.00 | 0.00 | 0.00 | 79 | 1016.3 |
| 20260902141322 | 82 | 205 | 0.0 | 1.0 | 0.00 | 0.00 | 0.00 | 80 | 1016.4 |
| 20260902140821 | 81 | 193 | 1.0 | 1.0 | 0.00 | 0.00 | 0.00 | 81 | 1016.4 |
| 20260902140317 | 81 | 201 | 0.0 | 1.0 | 0.00 | 0.00 | 0.00 | 81 | 1016.4 |
| 20260902135816 | 81 | 189 | 1.0 | 2.0 | 0.00 | 0.00 | 0.00 | 80 | 1016.2 |
| 20260902135312 | 80 | 217 | 1.0 | 1.0 | 0.00 | 0.00 | 0.00 | 80 | 1016.1 |
| 20260902134811 | 80 | 191 | 1.0 | 1.0 | 0.00 | 0.00 | 0.00 | 80 | 1015.9 |
| 20260902134307 | 80 | 192 | 1.0 | 1.0 | 0.00 | 0.00 | 0.00 | 80 | 1016.1 |
| 20260902133802 | 79 | 192 | 0.0 | 0.0 | 0.00 | 0.00 | 0.00 | 80 | 1016.1 |
| 20260902133301 | 79 | 192 | 1.0 | 1.0 | 0.00 | 0.00 | 0.00 | 81 | 1016.2 |
| 20260902132757 | 78 | 192 | 0.0 | 1.0 | 0.00 | 0.00 | 0.00 | 81 | 1015.9 |
| 20260902132252 | 78 | 192 | 0.0 | 0.0 | 0.00 | 0.00 | 0.00 | 81 | 1016.0 |
| 20260902131748 | 77 | 192 | 0.0 | 0.0 | 0.00 | 0.00 | 0.00 | 82 | 1015.8 |
| 20260902131244 | 77 | 193 | 0.0 | 0.0 | 0.00 | 0.00 | 0.00 | 83 | 1016.0 |
| 20260902130743 | 75 | 193 | 0.0 | 0.0 | 0.00 | 0.00 | 0.00 | 86 | 1016.0 |
| 20260902130239 | 74 | 193 | 0.0 | 0.0 | 0.00 | 0.00 | 0.00 | 88 | 1015.9 |
| 20260902125734 | 74 | 193 | 0.0 | 0.0 | 0.00 | 0.00 | 0.00 | 88 | 1015.7 |
| 20260902125230 | 73 | 193 | 0.0 | 0.0 | 0.00 | 0.00 | 0.00 | 89 | 1015.9 |
| 20260902124727 | 73 | 193 | 1.0 | 1.0 | 0.00 | 0.00 | 0.00 | 90 | 1015.8 |
| 20260902124222 | 72 | 194 | 1.0 | 1.0 | 0.00 | 0.00 | 0.00 | 91 | 1015.6 |
| 20260902123717 | 72 | 193 | 0.0 | 1.0 | 0.00 | 0.00 | 0.00 | 91 | 1015.7 |
| 20260902123213 | 71 | 194 | 0.0 | 1.0 | 0.00 | 0.00 | 0.00 | 92 | 1015.4 |
| 20260902122712 | 71 | 194 | 0.0 | 0.0 | 0.00 | 0.00 | 0.00 | 92 | 1015.6 |
| 20260902122208 | 71 | 194 | 0.0 | 0.0 | 0.00 | 0.00 | 0.00 | 92 | 1015.3 |
| 20260902121702 | 71 | 194 | 0.0 | 0.0 | 0.00 | 0.00 | 0.00 | 93 | 1015.4 |
| 20260902121156 | 71 | 194 | 0.0 | 0.0 | 0.00 | 0.00 | 0.00 | 93 | 1015.4 |
| 20260902120653 | 71 | 194 | 0.0 | 0.0 | 0.00 | 0.00 | 0.00 | 93 | 1015.4 |
| 20260902120149 | 71 | 194 | 0.0 | 0.0 | 0.00 | 0.00 | 0.00 | 93 | 1015.2 |
| 20260902115648 | 71 | 194 | 0.0 | 0.0 | 0.00 | 0.00 | 0.00 | 92 | 1015.3 |
| 20260902115145 | 71 | 194 | 0.0 | 0.0 | 0.00 | 0.00 | 0.00 | 92 | 1015.4 |
| 20260902114640 | 71 | 194 | 0.0 | 0.0 | 0.00 | 0.00 | 0.00 | 92 | 1015.3 |
| 20260902114135 | 71 | 194 | 0.0 | 0.0 | 0.00 | 0.00 | 0.00 | 92 | 1015.4 |
| 20260902113631 | 71 | 194 | 0.0 | 0.0 | 0.00 | 0.00 | 0.00 | 92 | 1015.5 |
| 20260902113126 | 71 | 194 | 0.0 | 0.0 | 0.00 | 0.00 | 0.00 | 91 | 1015.2 |
| 20260902112621 | 71 | 194 | 0.0 | 0.0 | 0.00 | 0.00 | 0.00 | 91 | 1015.2 |
| 20260902112118 | 72 | 194 | 0.0 | 0.0 | 0.00 | 0.00 | 0.00 | 91 | 1015.3 |
| 20260902111608 | 72 | 194 | 0.0 | 0.0 | 0.00 | 0.00 | 0.00 | 91 | 1015.1 |
| 20260902111103 | 72 | 194 | 0.0 | 0.0 | 0.00 | 0.00 | 0.00 | 91 | 1015.0 |
| 20260902110559 | 72 | 194 | 0.0 | 0.0 | 0.00 | 0.00 | 0.00 | 90 | 1015.3 |
| 20260902110055 | 72 | 194 | 0.0 | 0.0 | 0.00 | 0.00 | 0.00 | 90 | 1015.4 |
| 20260902105555 | 72 | 194 | 0.0 | 0.0 | 0.00 | 0.00 | 0.00 | 89 | 1015.1 |
| 20260902105055 | 73 | 194 | 0.0 | 0.0 | 0.00 | 0.00 | 0.00 | 89 | 1015.2 |
| 20260902104550 | 73 | 194 | 0.0 | 0.0 | 0.00 | 0.00 | 0.00 | 88 | 1015.2 |
| 20260902104045 | 73 | 194 | 0.0 | 0.0 | 0.00 | 0.00 | 0.00 | 87 | 1015.0 |
| 20260902103540 | 74 | 194 | 0.0 | 1.0 | 0.00 | 0.00 | 0.00 | 87 | 1015.4 |
| 20260902103035 | 74 | 195 | 1.0 | 1.0 | 0.00 | 0.00 | 0.00 | 87 | 1015.1 |